Flag for Germany Weather past 2 weeks in Bretten, Baden-Württemberg, Germany

Now
64 °F

Sunny.


Feels Like: 64 °F
Forecast: 49 / 70 °F
Wind: 3 mph from Northeast

Location: Baden Wurttemberg - Neuostheim

Current Time: Oct 1, 2014 at 8:28:55 PM

Latest Report: Oct 1, 2014 at 7:50 PM


Visibility: 10 mi

Pressure: 30.33 "Hg

Humidity: 68%

Dew point: 54 °F

Location of BrettenLocation

Historic Weather in Bretten — Graph

°F

Bretten temperature yesterday

Maximum temperature yesterday: 70 °F (at 12:50 PM)
Minimum temperature yesterday: 61 °F (at 9:20 PM)
Average temperature yesterday: 67 °F

Past Weeks' High & Low Weather Summary

 TemperatureHumidityPressure
High79 °F (Sep 17, 3:20 PM)100% (Sep 17, 5:50 AM)30.36 "Hg (Sep 17, 5:50 AM)
Low41 °F (Sep 23, 6:20 AM)39% (Sep 17, 4:20 PM)29.86 "Hg (Sep 17, 3:20 PM)
Average64 °F73%30.11 "Hg
* Reported Sep 16 7:20 PM — Oct 1 7:20 PM, Bretten, Weather by CustomWeather, © 2014

Note: Actual official high and low records may vary slightly from our data, if they occured in-between our weather recording intervals... More about our weather records

Advertising

Bretten weather history for previous 24 hours

 ConditionsComfort  
Time TempWeatherWind HumidityBarometerVisibility
7:20 PM
Oct 1
66 °FSunny.5 mph64%30.30 "Hg10 mi
6:50 PM68 °FSunny.6 mph60%30.30 "Hg10 mi
6:20 PM72 °FSunny.3 mph53%30.30 "Hg10 mi
5:50 PM72 °FPassing clouds.6 mph53%30.30 "HgN/A
5:20 PM72 °FPassing clouds.6 mph53%30.30 "HgN/A
4:50 PM72 °FPassing clouds.7 mph57%30.30 "HgN/A
4:20 PM72 °FScattered clouds.6 mph57%30.30 "HgN/A
3:50 PM73 °FPartly sunny.3 mph53%30.30 "HgN/A
3:20 PM72 °FPassing clouds.2 mph53%30.30 "HgN/A
2:50 PM72 °FScattered clouds.2 mph57%30.30 "HgN/A
2:20 PM70 °FPassing clouds.3 mph57%30.30 "HgN/A
1:50 PM72 °FPartly sunny.2 mph57%30.30 "HgN/A
1:20 PM70 °FPassing clouds.3 mph60%30.33 "HgN/A
12:50 PM72 °FScattered clouds.2 mph65%30.33 "Hg6 mi
12:20 PM70 °FScattered clouds.2 mph69%30.33 "Hg5 mi
11:50 AM68 °FPartly sunny.2 mph69%30.33 "Hg4 mi
11:20 AM66 °FScattered clouds.2 mph73%30.33 "Hg4 mi
10:50 AM64 °FPartly sunny.2 mph88%30.33 "Hg4 mi
10:20 AM64 °FPartly sunny.2 mph83%30.33 "Hg4 mi
9:50 AM63 °FFog.1 mph88%30.33 "Hg3 mi
9:20 AM61 °FFog.No wind100%30.33 "Hg3 mi
8:50 AM61 °FFog.1 mph94%30.30 "Hg2 mi
8:20 AM59 °FFog.2 mph100%30.30 "Hg2 mi
7:50 AM59 °FFog.1 mph94%30.30 "Hg2 mi
7:20 AM57 °FFog.No wind100%30.30 "Hg3 mi
6:50 AM59 °FPartly cloudy.No wind94%30.30 "Hg4 mi
6:20 AM59 °FMostly cloudy.1 mph94%30.30 "HgN/A
5:50 AM59 °FPartly cloudy.3 mph94%30.30 "Hg6 mi
9:20 PM
Sep 30
61 °FPassing clouds.2 mph88%30.30 "HgN/A
8:50 PM63 °FPassing clouds.No wind83%30.30 "HgN/A
8:20 PM64 °FPassing clouds.1 mph83%30.30 "HgN/A
Weather by CustomWeather, © 2014

See weather overviewHow to use our weather pages